Details From KAGS - Augusta Rgnl At Bush Fld
To KDNL - Daniel Fld
Flight Number -
Tags generated
Created
Modified
Stats Distance 30 nm / 55 km
Max Altitude 3,100 ft / 945 m
Waypoints 3
Social Downloads 0
Likes 0
Share VATSIM

Download

Looking for another format? Having issues loading an existing format? Contact us
Advertisement - Login to hide

Notes

Basic altitude profile: - Ascent Rate: 2500ft/min - Ascent Speed: 250kts - Cruise Altitude: 35000ft - Cruise Speed: 420kts - Descent Rate: 1500ft/min - Descent Speed: 250kts

Route

KAGS LASHE KDNL

ID Type Via Altitude Latitude Longitude Leg Dist Tot Dist Heading (true) Name
O KAGS APT - 0 ft / 0 m 33.36968˚ -81.96390˚ - 0 nm - Augusta Rgnl At Bush Fld
LASHE FIX - 3,100 ft / 945 m 33.56066˚ -81.76869˚ 15 nm 15 nm 40° / 41° -
O KDNL APT - 0 ft / 0 m 33.46657˚ -82.03940˚ 14 nm 29 nm 247° / 247° Daniel Fld

Altitude Profile

Advertisement - Login to hide

KAGS

Details ICAO KAGS (AGS)
Name Augusta Rgnl At Bush Fld
Region United States
Timezone America/New_York (UTC-4.0)
Stats Elevation 144 ft / 44 m (AMSL)
Location 33.369676° -81.963895°
Runways 2
Magnetic Variation 6.752° W

METAR

KAGS 220253Z 00000KT 10SM CLR 23/21 A3012 RMK AO2 SLP199 T02280211 51011

Decode

TAF

TAF AMD KAGS 220244Z 2203/2224 15003KT P6SM BKN150 FM220900 00000KT 4SM BR BKN015 TEMPO 2210/2212 1SM BR SCT015 FM221300 VRB03KT P6SM VCSH SCT020 FM221700 18008KT P6SM VCSH SCT050 BKN150

Decode

Departure Runways

ID Width Length Bearing (true) Bearing (mag) Surface Threshold Offset Overrun Length
08 75 ft / 23 m 5,991 ft / 1,826 m 78.15° 84.90° Asphalt 0 ft / 0 m 0 ft / 0 m
17 150 ft / 46 m 8,021 ft / 2,445 m 168.17° 174.92° Asphalt 0 ft / 0 m 0 ft / 0 m
26 75 ft / 23 m 5,991 ft / 1,826 m 258.16° 264.91° Asphalt 0 ft / 0 m 0 ft / 0 m
35 150 ft / 46 m 8,021 ft / 2,445 m 348.18° 354.93° Asphalt 0 ft / 0 m 0 ft / 0 m

KDNL

Details ICAO KDNL (DNL)
Name Daniel Fld
Region United States
Timezone America/New_York (UTC-4.0)
Stats Elevation 422 ft / 129 m (AMSL)
Location 33.466567° -82.039397°
Runways 2
Magnetic Variation 6.717° W

METAR

KDNL 220253Z AUTO 13003KT 10SM CLR 24/20 A3014 RMK AO2 SLP201 T02440200 51011 $

Decode

TAF

KDNL 220244Z 2203/2224 15004KT P6SM BKN150 FM221000 VRB03KT P6SM BKN015 FM221300 16004KT P6SM VCSH SCT020 FM221700 18007KT P6SM VCSH SCT050 BKN150

Decode

Destination Runways

ID Width Length Bearing (true) Bearing (mag) Surface Threshold Offset Overrun Length
05 98 ft / 30 m 4,005 ft / 1,221 m 44.89° 51.61° Asphalt 200 ft / 61 m 0 ft / 0 m
11 98 ft / 30 m 3,732 ft / 1,137 m 104.11° 110.83° Asphalt 325 ft / 99 m 400 ft / 122 m
23 98 ft / 30 m 4,005 ft / 1,221 m 224.89° 231.61° Asphalt 289 ft / 88 m 151 ft / 46 m
29 98 ft / 30 m 3,732 ft / 1,137 m 284.12° 290.84° Asphalt 315 ft / 96 m 200 ft / 61 m